Location: Im Fang
(46.6019°N, 7.2397°E)
Time: 13:51:19
(UTC+00:00)

Lacrosse 5 - Pass Details

Date: 08 December 2019
Orbit: 717 x 722 km, 57.0° (Epoch: 10 January)

Event Time Altitude Azimuth Distance (km) Brightness Sun altitude
Exits shadow 05:02:53 13° 220° (SW) 1,973 3.9 -19.6°
Drops below altitude 10° 05:04:10 10° 206° (SSW) 2,195 4.2 -19.4°
Sets 05:07:29 0° 183° (S) 3,111 5.3 -18.8°
